AXY256Y WIDD-RKSI

Flight info

Callsign AXY256Y
Flight time N/A
Altitude 40000
Route TOMAN L625 AKMON/K0872F400 L625 ANOKI/N0471F400 L625 ABVAR/N0469F410 M646 POTIB Q11 JICHI B591 TITUS Q11 WP900 L4 LIPLO Y741 BOLUT B576 CJU Y722 MAKSA MAKSA2M
Aircraft A343/H-SDE2E3FGHIJ4J5M1RWXY/LB1D1

Departure

Time 2026-04-15 22:46
Airport Hang Nadim International Airport (WIDD)

Arrival

Time N/A
Airport Incheon International Airport (RKSI)
Time Latitude Longitude Altitude Speed Heading
2026-04-15 22:25 1.12548 104.11849 141 ft 0 kts 311°
2026-04-15 22:38 1.12546 104.11851 141 ft 3 kts 311°
2026-04-15 22:38 1.12528 104.11871 141 ft 4 kts 311°
2026-04-15 22:38 1.12512 104.11890 141 ft 4 kts 302°
2026-04-15 22:39 1.12506 104.11913 141 ft 4 kts 249°
2026-04-15 22:39 1.12520 104.11934 141 ft 4 kts 224°
2026-04-15 22:39 1.12530 104.11944 141 ft 0 kts 222°
2026-04-15 22:41 1.12521 104.11936 141 ft 4 kts 222°
2026-04-15 22:41 1.12484 104.11902 141 ft 10 kts 221°
2026-04-15 22:41 1.12416 104.11842 141 ft 16 kts 221°
2026-04-15 22:41 1.12360 104.11807 141 ft 3 kts 180°
2026-04-15 22:42 1.12319 104.11822 141 ft 10 kts 162°
2026-04-15 22:42 1.12240 104.11786 141 ft 16 kts 220°
2026-04-15 22:42 1.12138 104.11692 141 ft 22 kts 222°
2026-04-15 22:42 1.12019 104.11590 141 ft 23 kts 220°
2026-04-15 22:43 1.11898 104.11485 141 ft 24 kts 221°
2026-04-15 22:43 1.11773 104.11374 141 ft 25 kts 221°
2026-04-15 22:43 1.11641 104.11256 141 ft 26 kts 221°
2026-04-15 22:43 1.11509 104.11139 141 ft 25 kts 221°
2026-04-15 22:44 1.11379 104.11025 141 ft 25 kts 221°
2026-04-15 22:44 1.11246 104.10908 141 ft 27 kts 221°
2026-04-15 22:44 1.11104 104.10784 141 ft 27 kts 222°
2026-04-15 22:44 1.10965 104.10659 141 ft 27 kts 221°
2026-04-15 22:45 1.10851 104.10589 140 ft 11 kts 178°
2026-04-15 22:45 1.10794 104.10626 139 ft 10 kts 135°
2026-04-15 22:45 1.10768 104.10692 139 ft 11 kts 85°
2026-04-15 22:45 1.10803 104.10735 139 ft 11 kts 43°
2026-04-15 22:46 1.11002 104.10917 139 ft 76 kts 41°
2026-04-15 22:46 1.11601 104.11442 139 ft 148 kts 40°
2026-04-15 22:46 1.12501 104.12230 291 ft 193 kts 41°
2026-04-15 22:46 1.13509 104.13102 1170 ft 192 kts 43°
2026-04-15 22:47 1.14546 104.14025 1731 ft 209 kts 43°
2026-04-15 22:47 1.15676 104.15047 2158 ft 231 kts 43°
2026-04-15 22:47 1.16936 104.16161 2656 ft 251 kts 43°
2026-04-15 22:47 1.18274 104.17339 3382 ft 261 kts 43°
2026-04-15 22:48 1.19657 104.18557 4155 ft 268 kts 43°
2026-04-15 22:48 1.21077 104.19810 4949 ft 275 kts 43°
2026-04-15 22:48 1.22407 104.21196 5718 ft 280 kts 57°
2026-04-15 22:48 1.23141 104.22985 6521 ft 280 kts 80°
2026-04-15 22:49 1.23475 104.24879 7295 ft 283 kts 82°
2026-04-15 22:49 1.23779 104.26833 8090 ft 287 kts 82°
2026-04-15 22:49 1.24095 104.28818 8883 ft 291 kts 82°
2026-04-15 22:49 1.24422 104.30822 9681 ft 295 kts 81°
2026-04-15 22:50 1.24761 104.32879 10215 ft 307 kts 81°
2026-04-15 22:50 1.25119 104.35047 10544 ft 326 kts 81°
2026-04-15 22:50 1.25500 104.37338 10860 ft 343 kts 81°
2026-04-15 22:50 1.25900 104.39737 11174 ft 358 kts 81°
2026-04-15 22:51 1.26317 104.42241 11474 ft 372 kts 81°
2026-04-15 22:51 1.26747 104.44818 11939 ft 379 kts 81°
2026-04-15 22:51 1.27184 104.47435 12501 ft 383 kts 81°
2026-04-15 22:51 1.27625 104.50075 13083 ft 387 kts 81°
2026-04-15 22:52 1.28066 104.52733 13678 ft 390 kts 81°
2026-04-15 22:52 1.28516 104.55428 14208 ft 394 kts 80°
2026-04-15 22:52 1.28972 104.58141 14708 ft 398 kts 80°
2026-04-15 22:52 1.29430 104.60873 15222 ft 401 kts 80°
2026-04-15 22:53 1.29891 104.63629 15737 ft 405 kts 80°
2026-04-15 22:53 1.30357 104.66414 16273 ft 408 kts 80°
2026-04-15 22:53 1.30827 104.69225 16812 ft 411 kts 80°
2026-04-15 22:53 1.31300 104.72052 17345 ft 415 kts 80°
2026-04-15 22:54 1.31777 104.74907 17900 ft 418 kts 80°
2026-04-15 22:54 1.32256 104.77775 18389 ft 422 kts 80°
2026-04-15 22:54 1.32742 104.80680 18865 ft 425 kts 80°
2026-04-15 22:54 1.33229 104.83599 19339 ft 428 kts 80°
2026-04-15 22:55 1.33722 104.86545 19800 ft 431 kts 80°
2026-04-15 22:55 1.34124 104.89517 20269 ft 433 kts 85°
2026-04-15 22:55 1.34265 104.92539 20719 ft 436 kts 88°
2026-04-15 22:55 1.34336 104.95579 21165 ft 440 kts 89°
2026-04-15 22:56 1.34403 104.98648 21594 ft 443 kts 89°
2026-04-15 22:56 1.34473 105.01730 22048 ft 446 kts 89°
2026-04-15 22:56 1.34545 105.04837 22480 ft 448 kts 89°
2026-04-15 22:56 1.34619 105.07965 22909 ft 451 kts 89°
2026-04-15 22:57 1.34693 105.11099 23326 ft 454 kts 89°
2026-04-15 22:57 1.34768 105.14256 23694 ft 456 kts 89°
2026-04-15 22:57 1.34844 105.17439 24078 ft 458 kts 89°
2026-04-15 22:57 1.34921 105.20626 24444 ft 459 kts 89°
2026-04-15 22:58 1.34997 105.23820 24841 ft 460 kts 89°
2026-04-15 22:58 1.35074 105.27026 25189 ft 462 kts 89°
2026-04-15 22:58 1.35192 105.30249 25551 ft 465 kts 86°
2026-04-15 22:58 1.35700 105.33434 25830 ft 469 kts 76°
2026-04-15 22:59 1.36794 105.36487 26166 ft 472 kts 65°
2026-04-15 22:59 1.38546 105.39310 26531 ft 475 kts 52°
2026-04-15 22:59 1.40712 105.41597 26863 ft 478 kts 43°
2026-04-15 22:59 1.43231 105.43781 27197 ft 480 kts 40°
2026-04-15 23:00 1.45891 105.45886 27534 ft 483 kts 38°
2026-04-15 23:00 1.48533 105.47905 27850 ft 485 kts 38°
2026-04-15 23:00 1.51223 105.49953 28194 ft 486 kts 38°
2026-04-15 23:00 1.53911 105.52021 28516 ft 489 kts 39°
2026-04-15 23:01 1.56595 105.54111 28810 ft 491 kts 39°
2026-04-15 23:01 1.59285 105.56225 29107 ft 493 kts 39°
2026-04-15 23:01 1.61980 105.58354 29398 ft 495 kts 39°
2026-04-15 23:01 1.64680 105.60495 29708 ft 496 kts 39°
2026-04-15 23:02 1.67387 105.62642 30094 ft 495 kts 39°
2026-04-15 23:02 1.70074 105.64773 30423 ft 495 kts 39°
2026-04-15 23:02 1.72778 105.66916 30682 ft 496 kts 39°
2026-04-15 23:02 1.75474 105.69053 31008 ft 495 kts 39°
2026-04-15 23:03 1.78170 105.71189 31365 ft 493 kts 39°
2026-04-15 23:03 1.80855 105.73316 31703 ft 492 kts 39°
2026-04-15 23:03 1.83537 105.75441 32036 ft 491 kts 39°
2026-04-15 23:03 1.86208 105.77557 32464 ft 487 kts 39°
2026-04-15 23:04 1.88856 105.79654 32838 ft 485 kts 39°
2026-04-15 23:04 1.91501 105.81750 33114 ft 485 kts 39°
2026-04-15 23:04 1.94146 105.83846 33386 ft 485 kts 39°
2026-04-15 23:04 1.96789 105.85940 33672 ft 485 kts 39°
2026-04-15 23:05 1.99437 105.88038 33937 ft 484 kts 39°
2026-04-15 23:05 2.02065 105.90122 34179 ft 484 kts 39°
2026-04-15 23:05 2.04707 105.92215 34428 ft 483 kts 39°
2026-04-15 23:05 2.07336 105.94298 34680 ft 482 kts 39°